Find Starlink 11594

NORAD ID: 64320 Int'l Des: 2025-124 Owner: SPXS Country: US Constellation: starlink operational
又名: STARLINK-11594 [DTC] celestrak
LEOCIRCULAR

当前视图

正在加载3D地球...

About Starlink 11594

Starlink 11594 (NORAD 64320) is a starlink constellation satellite (v2 mini d2c) launched Jun 10, 2025 by SPXS of US. It operates in LEO, CIRCULAR orbit with a mass of 960.00 kg.

即将过境

Passes for default location (London). Set your location on the main map for personalized predictions.

高度历史

Loading altitude history...

两行轨道根数

1 64320U 25124D 26236.88866133 .00187806 00000-0 14296-2 0 9995
2 64320 43.0007 95.7338 0002640 258.6749 101.3822 15.70916558 69288
Epoch: Aug 24, 2026 • Age: 11 hours

当前状态

高度 356.2 km
远地点 / 近地点 N/A
速度 7.70 km/s
星下点 -3.92°S, 4.5°W
发射日期 Jun 10, 2025
运行时间 1.2 years
类型 internet

技术详情

分类 Payload
质量 960.00 kg
干质量 910.00 kg
总质量 960.00 kg
长度 0.30 m
直径 4.10 m
跨度 29.00 m
形状 Box + pan
制造商 SPXS
平台类型 Starlink V2MD
阶段状态 In Orbit
所有者/国家 SPXS/US

Most Searched